Location: Boiro
(42.6475°N, 8.8834°W)
Time: 19:18:38
(UTC+01:00)

Tiros 1 - Visible Passes

Search period start: 30 November 2021 00:00
Search period end: 10 December 2021 00:00
Orbit: 630 x 664 km, 48.4° (Epoch: 30 November)

Date Brightness Start Highest point End Pass type
(mag) Time Alt. Az. Time Alt. Az. Time Alt. Az.
30 Nov 9.1 19:46:33 10° SSE 19:48:30 14° SE 19:48:30 14° SE visible
30 Nov 10.0 21:25:59 10° SW 21:26:11 11° SW 21:26:11 11° SW visible
01 Dec 8.3 20:10:29 10° SSW 20:13:41 29° SSE 20:13:41 29° SSE visible
02 Dec 9.2 18:56:38 10° SSE 18:58:48 13° SE 19:00:59 10° ESE visible
02 Dec 8.1 20:35:41 10° SW 20:38:48 40° SSW 20:38:48 40° SSW visible
03 Dec 8.3 19:20:18 10° SSW 19:24:16 29° SE 19:26:11 21° E visible
03 Dec 8.9 21:01:31 10° WSW 21:03:51 29° WSW 21:03:51 29° WSW visible
04 Dec 7.3 19:45:24 10° SW 19:49:56 58° SSE 19:51:10 43° E visible
04 Dec 9.8 21:27:41 10° W 21:28:50 17° W 21:28:50 17° W visible
05 Dec 8.5 18:30:07 10° SSW 18:33:58 26° SE 18:37:51 10° E visible
05 Dec 7.0 20:11:10 10° WSW 20:15:49 79° NNW 20:16:05 75° NNE visible
06 Dec 7.5 18:55:07 10° SW 18:59:37 54° SE 19:03:18 15° ENE visible
06 Dec 8.0 20:37:19 10° W 20:40:58 45° NW 20:40:58 45° NW visible
07 Dec 7.1 19:20:50 10° WSW 19:25:28 84° NNW 19:28:08 25° ENE visible
07 Dec 9.1 21:03:37 10° WNW 21:05:48 25° WNW 21:05:48 25° WNW visible
08 Dec 7.5 19:46:56 10° W 19:51:30 54° NNW 19:52:57 38° NE visible
08 Dec 9.9 21:29:50 10° WNW 21:30:36 14° WNW 21:30:36 14° WNW visible
09 Dec 7.2 18:30:30 10° WSW 18:35:07 88° NNW 18:39:49 10° ENE visible
09 Dec 7.8 20:13:14 10° W 20:17:40 42° N 20:17:44 42° N visible
